SCP
0 0 0 0 0 0 0 0 0 0 0 0 0 0 0 0 0 0 0 0 0 0 0 0 0 0 0 -0 -0 -0 -0 -0 -0 -0 -0 -0 0 0 0 0 0 0 0 0 0 0 0 0 0
0 0 0 0 0 0 0 0 0 0 0 0 0 0 0 0 0 0 0 0 0 0 0 0 0 0 0 0 0 0 0 0 0 0 0 0 0 0 0 0 0 0 0 0 0 0 0 0 0
0 0 0 0 0 0 0 0 0 0 0 0 0 0 0 0 0 0 0 0 0 0 0 0 0 0 0 0 0 0 0 0 0 0 0 0 0 0 0 0 0 0 0 0 0 0 0 0 0
0 0 0 0 0 0 0 0 0 0 0 0 0 0 0 0 0 0 0 0 0 0 0 0 0 0 0 0 0 0 0 0 0 0 0 0 0 0 0 0 0 0 0 0 0 0 0 0 0
0 0 0 0 0 0 0 0 0 0 0 0 0 0 0 0 0 0 0 0 0 0 0 0 0 0 0 0 0 0 0 0 0 0 0 0 0 0 0 0 0 0 0 0 0 0 0 0 0
0 0 0 0 0 0 0 0 0 0 0 0 0 0 0 0 0 0 0 0 0 0 0 0 0 0 0 0 0 0 0 0 0 0 0 0 0 0 0 0 0 0 0 0 0 0 0 0 0
0 0 0 0 0 0 0 0 0 0 0 0 0 0 0 0 0 0 0 0 0 0 0 0 0 0 0 0 0 0 0 0 0 0 0 0 0 0 0 0 0 0 0 0 0 0 0 0 0
0 0 0 0 0 0 0 0 0 0 0 0 0 0 0 0 0 0 0 0 0 0 0 0 0 0 0 0 0 0 0 0 0 0 0 0 0 0 0 0 0 0 0 0 0 0 0 0 0
0 0 0 0 0 0 0 0 0 0 0 0 0 0 0 0 0 0 0 0 0 0 0 0 0 0 0 0 0 0 0 0 0 0 0 0 0 0 0 0 0 0 0 0 0 0 0 0 0
0 0 0 0 0 0 0 0 0 0 0 0 0 0 0 0 0 0 0 0 0 0 0 0 0 0 0 0 0 0 0 0 0 0 0 0 0 0 0 0 0 0 0 0 0 0 0 0 0
0 0 0 0 0 0 0 0 0 0 0 0 0 0 0 0 0 0 0 0 0 0 0 0 0 0 0 0 0 0 0 0 0 0 0 0 0 0 0 0 0 0 0 0 0 0 0 0 0
0 0 0 0 0 0 0 0 0 0 0 0 0 0 0 0 0 0 0 0 0 0 0 0 0 0 0 0 0 0 0 0 0 0 0 0 0 0 0 0 0 0 0 0 0 0 0 0 0
0 0 0 0 0 0 0 0 0 0 0 0 0 0 0 0 0 0 0 0 0 0 0 0 0 0 0 0 0 0 0 0 0 0 0 0 0 0 0 0 0 0 0 0 0 0 0 0 0
0 0 0 0 0 0 0 0 0 0 0 0 0 0 0 0 0 0 0 0 0 0 0 0 0 0 0 0 0 0 0 0 0 0 0 0 0 0 0 0 0 0 0 0 0 0 0 0 0
0 0 0 0 0 0 0 0 0 0 0 0 0 0 0 0 0 0 0 0 0 0 0 0 0 0 0 0 0 0 0 0 0 0 0 0 0 0 0 0 0 0 0 0 0 0 0 0 0
0 0 0 0 0 0 0 0 0 0 0 0 0 0 0 0 0 0 0 0 0 0 0 0 0 0 0 0 0 0 0 0 0 0 0 0 0 0 0 0 0 0 0 0 0 0 0 0 0
0 0 0 0 0 0 0 0 0 0 0 0 0 0 0 0 0 0 0 0 0 0 0 0 0 0 0 0 0 0 0 0 0 0 0 0 0 0 0 0 0 0 0 0 0 0 0 0 0
0 0 0 0 0 0 0 0 0 0 0 0 0 0 0 0 0 0 0 0 0 0 0 0 0 0 0 0 0 0 0 0 0 0 0 0 0 0 0 0 0 0 0 0 0 0 0 0 0
0 0 0 0 0 0 0 0 0 0 0 0 0 0 0 0 0 0 0 0 0 0 0 0 0 0 0 0 0 0 0 0 0 0 0 0 0 0 0 0 0 0 0 0 0 0 0 0 0
0 0 0 0 0 0 -0 -0 0 0 0 0 0 0 0 0 0 0 0 0 0 0 0 0 0 0 0 0 0 0 0 0 0 0 0 0 0 0 0 0 0 0 0 0 0 0 0 0 0
0 0 0 0 0 0 0 -0 0 0 0 0 0 0 0 0 0 0 0 0 0 0 0 0 0 0 0 0 0 0 0 0 0 0 0 0 0 0 0 0 0 0 0 0 0 0 0 0 0
0 0 0 0 0 0 0 0 0 0 0 0 0 0 0 0 0 0 0 0 0 0 0 0 0 0 0 0 0 0 0 0 0 0 0 0 0 0 0 0 0 0 0 0 0 0 0 0 0
0 0 0 0 0 0 0 0 -0 0 0 0 0 0 0 0 0 0 0 0 0 0 0 0 0 0 0 0 0 0 0 0 0 0 0 0 0 0 0 0 0 0 0 0 0 0 0 0 0
0 0 0 0 0 0 0 0 0 0 0 0 0 0 0 0 0 0 0 0 0 0 0 0 0 0 0 0 0 0 0 0 0 0 0 0 0 0 0 0 0 0 0 0 0 0 0 0 0
0 0 0 0 0 0 0 0 0 0 0 0 0 0 0 0 0 0 0 0 0 0 0 0 0 0 0 0 0 0 0 0 0 0 0 0 0 0 0 0 0 0 0 0 0 0 0 0 0
0 0 0 0 0 0 0 0 0 0 0 0 0 0 0 0 0 0 0 0 0 0 0 0 0 0 0 0 0 0 0 0 0 0 0 0 0 0 0 0 0 0 0 0 0 0 0 0 0
0 0 0 0 0 0 0 0 0 0 0 0 0 0 0 0 0 0 0 0 0 0 0 0 0 0 0 0 0 0 0 0 0 0 0 0 0 0 0 0 0 0 0 0 0 0 0 0 0
0 0 0 0 0 0 0 0 0 0 0 0 0 0 0 0 0 -0 0 0 0 0 0 0 0 0 0 0 0 0 0 0 0 0 0 0 0 0 0 0 0 0 0 0 0 0 0 0 0
0 0 0 0 0 0 0 0 0 0 0 0 -0 -0 0 0 0 -0 0 0 0 0 0 0 0 0 0 0 0 0 0 0 0 0 0 0 0 0 0 0 0 0 0 0 0 0 0 0 0
0 0 0 0 0 0 0 0 0 0 0 0 0 0 0 0 0 -0 0 0 0 0 0 0 0 0 0 0 0 0 0 0 0 0 0 0 0 0 0 0 0 0 0 0 0 0 0 0 0
Wind_Speed_500mb
12 17 17 13 6 8 6 14 6 4 8 15 21 21 26 24 7 9 40 33 30 24 23 22 21 19 15 11 10 11 8 6 4 5 5 8 8 10 12 11 12 13 13 14 13 13 14 14 15
17 21 17 5 8 3 10 12 6 5 18 24 27 13 19 7 14 43 40 33 29 27 26 24 22 20 18 15 12 10 7 5 5 7 8 10 13 14 16 16 17 17 18 19 18 16 18 19 18
19 21 8 8 8 9 6 8 11 12 20 15 12 25 11 9 30 50 41 40 34 30 27 23 20 17 14 11 8 5 2 0 3 6 10 11 13 16 17 20 21 21 21 22 23 22 23 23 24
17 8 3 7 12 8 9 12 21 10 10 17 29 16 16 6 36 32 49 39 32 27 21 18 14 11 9 7 4 2 2 4 6 8 9 11 13 15 17 20 24 24 26 25 26 29 27 26 28
10 3 3 3 8 6 5 17 18 9 14 13 11 11 12 20 18 40 40 33 31 26 19 13 8 5 2 2 1 3 4 6 8 11 14 16 18 18 20 22 23 25 28 28 31 31 32 32 32
1 2 5 6 5 6 4 8 9 12 23 18 19 19 11 23 25 44 33 28 26 21 17 11 6 2 1 3 5 7 9 9 10 11 13 16 18 21 24 25 27 29 29 30 32 35 35 35 38
2 6 7 5 4 6 8 13 5 9 18 8 23 10 27 35 37 41 32 27 23 21 16 10 3 3 6 9 11 13 13 13 13 14 16 18 20 21 24 26 30 33 34 34 35 36 40 42 42
5 6 6 7 9 4 3 5 7 13 2 17 13 13 16 48 44 45 39 30 25 21 14 9 5 4 8 6 10 12 14 15 17 18 20 22 24 26 27 28 30 32 35 38 41 42 42 46 49
0 7 3 8 10 4 5 5 4 8 11 6 4 12 13 58 52 49 43 36 28 22 15 13 11 9 11 7 10 12 14 16 19 22 25 27 29 29 28 30 33 35 37 39 42 44 47 50 52
6 7 1 7 5 7 4 10 8 1 6 7 7 7 24 54 50 50 46 40 30 26 22 19 13 10 10 11 14 15 15 17 20 24 28 31 32 32 34 35 35 36 38 39 44 46 48 50 55
3 6 4 8 9 12 3 6 2 3 6 14 19 29 50 48 42 42 39 31 19 20 22 15 14 14 12 15 16 16 16 17 22 28 31 32 31 30 30 32 36 40 42 42 43 47 49 51 53
6 6 4 5 8 6 5 10 7 13 8 6 7 37 47 49 42 39 33 19 25 28 25 23 23 20 16 18 18 18 19 23 27 32 37 39 38 36 35 35 35 36 41 46 49 50 50 53 55
4 4 6 4 6 6 8 9 12 24 26 18 19 31 42 40 35 32 26 24 28 32 32 33 29 25 20 19 19 20 23 27 31 36 40 42 41 41 41 40 41 42 44 46 49 52 57 57 56
3 5 7 3 2 5 7 7 13 9 9 39 22 25 40 36 30 28 32 38 34 30 37 37 33 28 24 21 22 24 27 31 36 40 44 44 43 43 44 44 45 46 47 48 51 54 56 61 62
5 4 0 3 2 1 10 8 13 28 9 9 32 33 30 39 31 37 37 39 36 35 36 36 33 31 26 25 25 27 32 36 39 43 47 45 45 46 49 51 52 52 52 54 55 55 56 60 63
4 3 4 3 1 2 4 14 4 3 23 24 21 24 38 39 39 36 39 33 23 28 35 35 36 32 29 27 28 32 36 40 43 47 51 49 48 50 52 54 54 56 59 60 60 61 62 61 61
11 2 3 4 1 2 4 12 11 10 9 23 27 24 29 40 36 38 43 43 33 29 34 41 40 34 30 29 32 36 41 44 47 51 55 53 52 53 56 55 56 61 65 64 62 60 62 63 63
4 5 6 7 1 5 9 27 27 58 44 50 50 36 31 36 36 38 42 35 33 32 37 41 40 31 30 32 37 42 45 45 48 51 54 52 53 55 55 57 63 66 68 66 60 61 64 66 65
1 2 6 7 1 6 11 19 33 45 31 37 32 43 43 35 34 41 39 34 30 32 35 31 29 29 32 37 43 47 50 50 51 53 53 53 57 57 61 68 73 73 70 70 69 64 59 59 49
3 2 8 8 5 7 13 29 39 23 17 18 16 19 32 37 31 30 29 28 29 21 20 22 26 30 37 44 47 52 54 56 57 57 55 57 58 61 66 71 74 73 70 67 63 55 52 50 41
4 3 4 7 14 7 14 15 11 5 12 20 27 29 27 26 23 20 18 13 9 10 16 24 30 37 44 47 52 55 55 57 57 55 58 58 60 65 71 72 71 68 62 62 51 47 48 54 47
1 5 3 4 9 4 10 10 14 4 3 4 15 20 20 21 23 22 17 9 3 8 18 27 35 42 47 52 55 54 55 58 57 60 62 64 67 71 70 68 65 62 53 52 50 44 41 44 49
4 5 2 6 6 8 11 7 15 6 5 10 16 23 24 23 22 21 17 8 9 19 26 34 41 48 51 51 49 48 51 53 58 59 64 69 70 69 65 61 58 52 49 48 47 45 45 45 51
3 7 11 7 7 5 8 8 11 6 9 8 12 32 30 26 23 23 17 8 21 27 30 33 37 39 41 41 41 44 49 54 58 61 68 71 71 61 51 47 42 38 38 40 43 46 45 45 47
11 10 7 9 7 9 8 3 18 10 2 16 22 38 32 30 29 25 19 38 38 38 38 32 31 35 36 37 39 43 49 52 57 63 68 69 68 57 50 44 39 36 33 36 40 44 47 49 54
2 11 8 10 5 8 8 11 11 12 3 20 36 42 39 34 26 25 34 41 42 45 38 32 31 28 31 34 39 44 45 49 57 62 64 65 57 53 47 41 37 34 34 35 38 44 46 50 51
5 2 4 9 3 7 7 14 17 2 8 5 30 46 42 31 16 27 34 38 43 39 36 30 26 26 28 32 38 39 42 50 57 60 58 55 49 48 46 41 38 37 37 38 40 46 49 50 51
9 2 6 6 2 8 10 10 13 9 14 11 20 47 41 33 21 27 31 33 30 32 29 26 26 26 29 34 37 38 44 51 57 57 53 46 45 44 42 42 42 43 43 42 41 45 48 50 51
3 4 3 4 8 10 5 11 13 15 15 23 33 49 44 20 26 37 39 30 27 24 22 23 25 26 31 36 37 39 44 52 53 51 47 41 38 36 38 42 43 44 45 40 40 42 48 52 54
8 14 10 8 11 8 4 14 9 13 12 26 44 52 48 28 34 44 44 29 23 18 19 22 24 27 32 33 34 37 46 51 49 44 38 35 36 36 36 40 42 45 43 42 42 45 47 51 55
Wind_Direction_500mb
188 170 164 134 78 72 231 255 225 173 63 68 61 75 107 61 54 143 131 170 183 171 150 143 130 132 124 135 148 139 160 180 214 225 234 252 259 259 260 254 253 252 253 248 249 252 255 252 263
168 164 150 110 99 90 263 250 120 15 124 100 77 86 53 83 103 133 142 175 182 156 144 137 131 128 129 125 116 109 121 160 222 245 265 266 261 264 267 267 263 265 262 255 254 256 260 260 259
154 147 151 125 148 185 228 39 133 106 92 90 96 70 75 97 134 146 161 178 170 154 146 138 134 134 134 128 118 114 116 27 263 274 280 283 281 274 273 271 271 269 265 261 253 255 250 252 255
138 148 235 105 226 259 130 173 129 106 61 70 114 65 86 159 150 164 172 180 163 155 147 140 134 126 122 116 127 158 225 277 289 290 282 279 281 285 285 281 275 272 266 263 261 263 251 252 254
111 180 69 232 229 184 105 143 133 120 128 108 100 132 88 128 183 162 171 176 165 157 153 152 143 128 99 45 327 286 282 285 290 294 296 297 291 285 280 281 282 279 273 266 259 260 266 261 254
335 168 71 225 255 138 49 101 100 125 128 126 102 114 132 167 173 162 174 184 170 170 169 167 165 153 327 321 332 337 332 329 323 315 308 303 299 296 290 284 278 276 278 275 266 259 261 262 262
89 86 218 195 212 140 174 141 71 146 130 125 148 97 147 174 172 161 175 189 184 185 184 187 214 306 318 330 339 343 342 336 331 329 326 321 313 307 300 294 287 282 279 273 271 266 260 258 258
20 98 295 233 191 175 173 81 66 62 116 150 141 159 174 178 172 171 182 194 193 196 199 210 231 265 284 300 303 314 322 327 329 331 328 326 320 313 307 300 292 285 281 277 272 268 264 260 259
27 56 286 331 23 106 142 75 41 70 119 90 123 149 182 174 183 183 187 194 199 212 223 237 244 249 270 291 296 303 304 314 325 331 333 331 326 317 309 301 296 290 285 279 276 272 266 261 259
94 115 56 350 15 13 73 90 145 71 153 140 142 142 162 177 191 194 196 201 206 223 235 240 236 247 272 293 301 304 307 312 319 326 329 330 327 323 319 311 303 296 290 284 278 273 271 267 261
54 150 349 35 18 20 21 42 111 135 225 204 198 174 170 181 194 203 204 212 223 242 242 250 251 260 274 292 299 300 303 310 322 325 327 328 327 322 319 317 311 304 296 291 283 275 271 268 265
118 86 37 31 14 23 42 320 315 230 219 102 320 209 190 192 204 206 203 206 224 226 260 269 270 264 276 289 296 302 308 315 321 326 329 332 332 330 327 324 321 314 303 295 291 285 277 269 265
49 96 65 41 16 4 315 280 260 261 240 258 269 189 205 209 214 212 203 210 223 228 249 262 264 270 275 287 296 300 303 312 319 325 331 331 330 328 326 324 323 322 315 306 296 288 285 279 270
51 90 115 63 63 334 343 270 341 270 233 225 230 207 204 215 219 208 205 210 224 232 249 264 275 277 280 291 294 296 304 314 320 327 330 329 326 323 322 321 320 318 315 310 302 296 289 284 280
104 32 87 210 153 44 334 281 231 258 238 205 224 236 216 207 212 210 211 212 226 241 258 268 278 281 275 283 288 294 304 312 318 323 328 327 324 322 322 321 320 318 314 311 305 297 289 285 282
24 54 29 219 19 282 18 268 304 230 214 233 233 230 227 219 212 211 211 208 211 235 256 267 275 279 270 278 284 294 304 310 315 320 325 325 322 321 318 317 316 314 313 311 307 300 293 286 282
11 189 291 283 89 297 180 268 270 223 248 251 248 237 229 219 214 218 222 230 242 249 256 263 269 270 269 276 285 295 303 309 315 319 323 322 319 317 315 314 312 311 308 305 303 297 292 290 285
287 355 315 263 272 239 244 258 268 271 268 262 254 241 221 218 226 227 228 235 253 258 265 263 268 264 269 280 289 296 301 308 311 314 316 315 314 314 310 310 310 311 307 303 299 293 289 288 285
1 349 278 280 27 289 254 276 279 280 261 254 251 234 225 225 219 215 214 224 238 256 265 263 261 269 278 287 292 296 301 304 307 310 313 313 313 312 311 312 311 309 304 300 296 292 296 295 292
35 80 289 294 4 338 295 289 283 298 267 248 245 206 203 160 168 182 201 227 251 254 257 261 271 279 283 287 293 298 302 304 308 313 314 314 313 312 309 307 304 302 299 294 291 289 280 283 289
34 166 323 263 322 303 322 302 332 17 92 95 99 126 144 163 173 175 171 173 208 259 280 282 282 282 286 292 294 296 298 301 307 309 309 311 310 308 307 305 302 299 297 294 287 288 287 282 283
252 0 45 11 40 270 42 282 307 277 144 116 131 131 141 149 148 149 148 137 51 335 306 295 289 288 290 291 293 295 300 304 308 310 311 311 309 308 306 303 299 295 292 288 286 289 286 284 283
233 13 45 94 86 45 334 76 269 210 203 225 190 163 161 160 160 156 147 120 10 337 313 298 285 282 285 287 292 296 298 302 306 309 309 310 310 309 306 299 293 288 284 280 282 284 281 275 274
67 47 28 50 90 10 255 128 280 240 218 183 186 171 166 166 168 173 183 244 303 311 316 291 279 275 278 286 292 296 299 304 305 309 310 311 310 309 306 303 295 289 284 281 280 279 277 276 273
55 53 343 348 354 229 323 35 247 266 180 181 169 167 166 177 187 202 260 302 307 313 317 302 288 283 285 290 293 297 301 303 306 309 310 310 311 309 309 306 300 298 298 293 289 281 272 270 271
126 143 155 223 261 267 0 241 258 218 187 175 176 173 174 189 211 254 282 286 294 302 306 299 292 283 284 288 295 299 301 303 307 311 310 306 304 305 307 304 301 298 293 291 293 290 286 281 277
250 75 163 100 69 50 242 287 297 31 309 225 165 175 184 195 224 284 286 283 283 290 296 295 288 284 287 294 299 300 303 309 312 312 308 305 306 308 309 306 301 298 292 291 287 284 284 285 281
156 180 45 0 302 281 284 275 234 273 241 244 205 192 193 191 306 301 295 288 282 287 292 293 290 292 297 303 305 308 312 314 313 311 308 306 305 308 310 308 304 301 298 293 290 287 287 287 283
34 307 7 119 171 199 255 258 216 221 208 201 211 203 195 228 316 327 312 283 275 280 286 287 289 292 302 307 308 312 315 317 316 311 307 306 308 310 306 305 302 298 294 295 292 287 285 282 279
188 195 161 143 260 237 153 269 240 235 229 207 217 208 206 273 316 330 311 264 259 271 287 293 293 296 304 308 307 314 320 322 318 314 314 312 307 305 305 302 300 298 294 292 291 288 287 286 284
Wind_Speed_850mb
12 17 17 13 6 8 6 14 6 4 8 15 21 21 26 24 7 9 40 33 30 24 23 22 21 19 15 11 10 11 8 6 4 5 5 8 8 10 12 11 12 13 13 14 13 13 14 14 15
17 21 17 5 8 3 10 12 6 5 18 24 27 13 19 7 14 43 40 33 29 27 26 24 22 20 18 15 12 10 7 5 5 7 8 10 13 14 16 16 17 17 18 19 18 16 18 19 18
19 21 8 8 8 9 6 8 11 12 20 15 12 25 11 9 30 50 41 40 34 30 27 23 20 17 14 11 8 5 2 0 3 6 10 11 13 16 17 20 21 21 21 22 23 22 23 23 24
17 8 3 7 12 8 9 12 21 10 10 17 29 16 16 6 36 32 49 39 32 27 21 18 14 11 9 7 4 2 2 4 6 8 9 11 13 15 17 20 24 24 26 25 26 29 27 26 28
10 3 3 3 8 6 5 17 18 9 14 13 11 11 12 20 18 40 40 33 31 26 19 13 8 5 2 2 1 3 4 6 8 11 14 16 18 18 20 22 23 25 28 28 31 31 32 32 32
1 2 5 6 5 6 4 8 9 12 23 18 19 19 11 23 25 44 33 28 26 21 17 11 6 2 1 3 5 7 9 9 10 11 13 16 18 21 24 25 27 29 29 30 32 35 35 35 38
2 6 7 5 4 6 8 13 5 9 18 8 23 10 27 35 37 41 32 27 23 21 16 10 3 3 6 9 11 13 13 13 13 14 16 18 20 21 24 26 30 33 34 34 35 36 40 42 42
5 6 6 7 9 4 3 5 7 13 2 17 13 13 16 48 44 45 39 30 25 21 14 9 5 4 8 6 10 12 14 15 17 18 20 22 24 26 27 28 30 32 35 38 41 42 42 46 49
0 7 3 8 10 4 5 5 4 8 11 6 4 12 13 58 52 49 43 36 28 22 15 13 11 9 11 7 10 12 14 16 19 22 25 27 29 29 28 30 33 35 37 39 42 44 47 50 52
6 7 1 7 5 7 4 10 8 1 6 7 7 7 24 54 50 50 46 40 30 26 22 19 13 10 10 11 14 15 15 17 20 24 28 31 32 32 34 35 35 36 38 39 44 46 48 50 55
3 6 4 8 9 12 3 6 2 3 6 14 19 29 50 48 42 42 39 31 19 20 22 15 14 14 12 15 16 16 16 17 22 28 31 32 31 30 30 32 36 40 42 42 43 47 49 51 53
6 6 4 5 8 6 5 10 7 13 8 6 7 37 47 49 42 39 33 19 25 28 25 23 23 20 16 18 18 18 19 23 27 32 37 39 38 36 35 35 35 36 41 46 49 50 50 53 55
4 4 6 4 6 6 8 9 12 24 26 18 19 31 42 40 35 32 26 24 28 32 32 33 29 25 20 19 19 20 23 27 31 36 40 42 41 41 41 40 41 42 44 46 49 52 57 57 56
3 5 7 3 2 5 7 7 13 9 9 39 22 25 40 36 30 28 32 38 34 30 37 37 33 28 24 21 22 24 27 31 36 40 44 44 43 43 44 44 45 46 47 48 51 54 56 61 62
5 4 0 3 2 1 10 8 13 28 9 9 32 33 30 39 31 37 37 39 36 35 36 36 33 31 26 25 25 27 32 36 39 43 47 45 45 46 49 51 52 52 52 54 55 55 56 60 63
4 3 4 3 1 2 4 14 4 3 23 24 21 24 38 39 39 36 39 33 23 28 35 35 36 32 29 27 28 32 36 40 43 47 51 49 48 50 52 54 54 56 59 60 60 61 62 61 61
11 2 3 4 1 2 4 12 11 10 9 23 27 24 29 40 36 38 43 43 33 29 34 41 40 34 30 29 32 36 41 44 47 51 55 53 52 53 56 55 56 61 65 64 62 60 62 63 63
4 5 6 7 1 5 9 27 27 58 44 50 50 36 31 36 36 38 42 35 33 32 37 41 40 31 30 32 37 42 45 45 48 51 54 52 53 55 55 57 63 66 68 66 60 61 64 66 65
1 2 6 7 1 6 11 19 33 45 31 37 32 43 43 35 34 41 39 34 30 32 35 31 29 29 32 37 43 47 50 50 51 53 53 53 57 57 61 68 73 73 70 70 69 64 59 59 49
3 2 8 8 5 7 13 29 39 23 17 18 16 19 32 37 31 30 29 28 29 21 20 22 26 30 37 44 47 52 54 56 57 57 55 57 58 61 66 71 74 73 70 67 63 55 52 50 41
4 3 4 7 14 7 14 15 11 5 12 20 27 29 27 26 23 20 18 13 9 10 16 24 30 37 44 47 52 55 55 57 57 55 58 58 60 65 71 72 71 68 62 62 51 47 48 54 47
1 5 3 4 9 4 10 10 14 4 3 4 15 20 20 21 23 22 17 9 3 8 18 27 35 42 47 52 55 54 55 58 57 60 62 64 67 71 70 68 65 62 53 52 50 44 41 44 49
4 5 2 6 6 8 11 7 15 6 5 10 16 23 24 23 22 21 17 8 9 19 26 34 41 48 51 51 49 48 51 53 58 59 64 69 70 69 65 61 58 52 49 48 47 45 45 45 51
3 7 11 7 7 5 8 8 11 6 9 8 12 32 30 26 23 23 17 8 21 27 30 33 37 39 41 41 41 44 49 54 58 61 68 71 71 61 51 47 42 38 38 40 43 46 45 45 47
11 10 7 9 7 9 8 3 18 10 2 16 22 38 32 30 29 25 19 38 38 38 38 32 31 35 36 37 39 43 49 52 57 63 68 69 68 57 50 44 39 36 33 36 40 44 47 49 54
2 11 8 10 5 8 8 11 11 12 3 20 36 42 39 34 26 25 34 41 42 45 38 32 31 28 31 34 39 44 45 49 57 62 64 65 57 53 47 41 37 34 34 35 38 44 46 50 51
5 2 4 9 3 7 7 14 17 2 8 5 30 46 42 31 16 27 34 38 43 39 36 30 26 26 28 32 38 39 42 50 57 60 58 55 49 48 46 41 38 37 37 38 40 46 49 50 51
9 2 6 6 2 8 10 10 13 9 14 11 20 47 41 33 21 27 31 33 30 32 29 26 26 26 29 34 37 38 44 51 57 57 53 46 45 44 42 42 42 43 43 42 41 45 48 50 51
3 4 3 4 8 10 5 11 13 15 15 23 33 49 44 20 26 37 39 30 27 24 22 23 25 26 31 36 37 39 44 52 53 51 47 41 38 36 38 42 43 44 45 40 40 42 48 52 54
8 14 10 8 11 8 4 14 9 13 12 26 44 52 48 28 34 44 44 29 23 18 19 22 24 27 32 33 34 37 46 51 49 44 38 35 36 36 36 40 42 45 43 42 42 45 47 51 55
Wind_Direction_850mb
188 170 164 134 78 72 231 255 225 173 63 68 61 75 107 61 54 143 131 170 183 171 150 143 130 132 124 135 148 139 160 180 214 225 234 252 259 259 260 254 253 252 253 248 249 252 255 252 263
168 164 150 110 99 90 263 250 120 15 124 100 77 86 53 83 103 133 142 175 182 156 144 137 131 128 129 125 116 109 121 160 222 245 265 266 261 264 267 267 263 265 262 255 254 256 260 260 259
154 147 151 125 148 185 228 39 133 106 92 90 96 70 75 97 134 146 161 178 170 154 146 138 134 134 134 128 118 114 116 27 263 274 280 283 281 274 273 271 271 269 265 261 253 255 250 252 255
138 148 235 105 226 259 130 173 129 106 61 70 114 65 86 159 150 164 172 180 163 155 147 140 134 126 122 116 127 158 225 277 289 290 282 279 281 285 285 281 275 272 266 263 261 263 251 252 254
111 180 69 232 229 184 105 143 133 120 128 108 100 132 88 128 183 162 171 176 165 157 153 152 143 128 99 45 327 286 282 285 290 294 296 297 291 285 280 281 282 279 273 266 259 260 266 261 254
335 168 71 225 255 138 49 101 100 125 128 126 102 114 132 167 173 162 174 184 170 170 169 167 165 153 327 321 332 337 332 329 323 315 308 303 299 296 290 284 278 276 278 275 266 259 261 262 262
89 86 218 195 212 140 174 141 71 146 130 125 148 97 147 174 172 161 175 189 184 185 184 187 214 306 318 330 339 343 342 336 331 329 326 321 313 307 300 294 287 282 279 273 271 266 260 258 258
20 98 295 233 191 175 173 81 66 62 116 150 141 159 174 178 172 171 182 194 193 196 199 210 231 265 284 300 303 314 322 327 329 331 328 326 320 313 307 300 292 285 281 277 272 268 264 260 259
27 56 286 331 23 106 142 75 41 70 119 90 123 149 182 174 183 183 187 194 199 212 223 237 244 249 270 291 296 303 304 314 325 331 333 331 326 317 309 301 296 290 285 279 276 272 266 261 259
94 115 56 350 15 13 73 90 145 71 153 140 142 142 162 177 191 194 196 201 206 223 235 240 236 247 272 293 301 304 307 312 319 326 329 330 327 323 319 311 303 296 290 284 278 273 271 267 261
54 150 349 35 18 20 21 42 111 135 225 204 198 174 170 181 194 203 204 212 223 242 242 250 251 260 274 292 299 300 303 310 322 325 327 328 327 322 319 317 311 304 296 291 283 275 271 268 265
118 86 37 31 14 23 42 320 315 230 219 102 320 209 190 192 204 206 203 206 224 226 260 269 270 264 276 289 296 302 308 315 321 326 329 332 332 330 327 324 321 314 303 295 291 285 277 269 265
49 96 65 41 16 4 315 280 260 261 240 258 269 189 205 209 214 212 203 210 223 228 249 262 264 270 275 287 296 300 303 312 319 325 331 331 330 328 326 324 323 322 315 306 296 288 285 279 270
51 90 115 63 63 334 343 270 341 270 233 225 230 207 204 215 219 208 205 210 224 232 249 264 275 277 280 291 294 296 304 314 320 327 330 329 326 323 322 321 320 318 315 310 302 296 289 284 280
104 32 87 210 153 44 334 281 231 258 238 205 224 236 216 207 212 210 211 212 226 241 258 268 278 281 275 283 288 294 304 312 318 323 328 327 324 322 322 321 320 318 314 311 305 297 289 285 282
24 54 29 219 19 282 18 268 304 230 214 233 233 230 227 219 212 211 211 208 211 235 256 267 275 279 270 278 284 294 304 310 315 320 325 325 322 321 318 317 316 314 313 311 307 300 293 286 282
11 189 291 283 89 297 180 268 270 223 248 251 248 237 229 219 214 218 222 230 242 249 256 263 269 270 269 276 285 295 303 309 315 319 323 322 319 317 315 314 312 311 308 305 303 297 292 290 285
287 355 315 263 272 239 244 258 268 271 268 262 254 241 221 218 226 227 228 235 253 258 265 263 268 264 269 280 289 296 301 308 311 314 316 315 314 314 310 310 310 311 307 303 299 293 289 288 285
1 349 278 280 27 289 254 276 279 280 261 254 251 234 225 225 219 215 214 224 238 256 265 263 261 269 278 287 292 296 301 304 307 310 313 313 313 312 311 312 311 309 304 300 296 292 296 295 292
35 80 289 294 4 338 295 289 283 298 267 248 245 206 203 160 168 182 201 227 251 254 257 261 271 279 283 287 293 298 302 304 308 313 314 314 313 312 309 307 304 302 299 294 291 289 280 283 289
34 166 323 263 322 303 322 302 332 17 92 95 99 126 144 163 173 175 171 173 208 259 280 282 282 282 286 292 294 296 298 301 307 309 309 311 310 308 307 305 302 299 297 294 287 288 287 282 283
252 0 45 11 40 270 42 282 307 277 144 116 131 131 141 149 148 149 148 137 51 335 306 295 289 288 290 291 293 295 300 304 308 310 311 311 309 308 306 303 299 295 292 288 286 289 286 284 283
233 13 45 94 86 45 334 76 269 210 203 225 190 163 161 160 160 156 147 120 10 337 313 298 285 282 285 287 292 296 298 302 306 309 309 310 310 309 306 299 293 288 284 280 282 284 281 275 274
67 47 28 50 90 10 255 128 280 240 218 183 186 171 166 166 168 173 183 244 303 311 316 291 279 275 278 286 292 296 299 304 305 309 310 311 310 309 306 303 295 289 284 281 280 279 277 276 273
55 53 343 348 354 229 323 35 247 266 180 181 169 167 166 177 187 202 260 302 307 313 317 302 288 283 285 290 293 297 301 303 306 309 310 310 311 309 309 306 300 298 298 293 289 281 272 270 271
126 143 155 223 261 267 0 241 258 218 187 175 176 173 174 189 211 254 282 286 294 302 306 299 292 283 284 288 295 299 301 303 307 311 310 306 304 305 307 304 301 298 293 291 293 290 286 281 277
250 75 163 100 69 50 242 287 297 31 309 225 165 175 184 195 224 284 286 283 283 290 296 295 288 284 287 294 299 300 303 309 312 312 308 305 306 308 309 306 301 298 292 291 287 284 284 285 281
156 180 45 0 302 281 284 275 234 273 241 244 205 192 193 191 306 301 295 288 282 287 292 293 290 292 297 303 305 308 312 314 313 311 308 306 305 308 310 308 304 301 298 293 290 287 287 287 283
34 307 7 119 171 199 255 258 216 221 208 201 211 203 195 228 316 327 312 283 275 280 286 287 289 292 302 307 308 312 315 317 316 311 307 306 308 310 306 305 302 298 294 295 292 287 285 282 279
188 195 161 143 260 237 153 269 240 235 229 207 217 208 206 273 316 330 311 264 259 271 287 293 293 296 304 308 307 314 320 322 318 314 314 312 307 305 305 302 300 298 294 292 291 288 287 286 284